TimeCST,TemperatureF,Dew PointF,Humidity,Sea Level PressureIn,VisibilityMPH,Wind Direction,Wind SpeedMPH,Gust SpeedMPH,PrecipitationIn,Events,Conditions,WindDirDegrees,DateUTC
12:15 AM,35.1,35.1,100,30.41,10.0,Calm,Calm,-,N/A,,Clear,0,2012-11-17 06:15:00
12:35 AM,36.0,36.0,100,30.40,10.0,Calm,Calm,-,N/A,,Clear,0,2012-11-17 06:35:00
12:55 AM,34.7,34.7,100,30.40,10.0,Calm,Calm,-,N/A,,Clear,0,2012-11-17 06:55:00
1:15 AM,34.5,34.5,100,30.40,10.0,Calm,Calm,-,N/A,,Clear,0,2012-11-17 07:15:00
1:35 AM,35.1,35.1,100,30.40,10.0,Calm,Calm,-,N/A,,Clear,0,2012-11-17 07:35:00
1:55 AM,35.4,35.4,100,30.39,10.0,Calm,Calm,-,N/A,,Clear,0,2012-11-17 07:55:00
2:15 AM,35.1,35.1,100,30.39,10.0,Calm,Calm,-,N/A,,Clear,0,2012-11-17 08:15:00
2:35 AM,34.2,34.2,100,30.39,10.0,Calm,Calm,-,N/A,,Clear,0,2012-11-17 08:35:00
2:55 AM,33.8,33.8,100,30.39,7.0,Calm,Calm,-,N/A,,Clear,0,2012-11-17 08:55:00
3:15 AM,33.4,33.4,100,30.39,10.0,Calm,Calm,-,N/A,,Clear,0,2012-11-17 09:15:00
3:35 AM,34.2,34.2,100,30.40,10.0,Calm,Calm,-,N/A,,Clear,0,2012-11-17 09:35:00
3:55 AM,34.3,34.3,100,30.39,10.0,Calm,Calm,-,N/A,,Clear,0,2012-11-17 09:55:00
4:15 AM,33.1,33.1,100,30.39,7.0,Calm,Calm,-,N/A,,Clear,0,2012-11-17 10:15:00
4:35 AM,32.5,32.5,100,30.39,7.0,Calm,Calm,-,N/A,,Clear,0,2012-11-17 10:35:00
4:55 AM,32.2,32.2,100,30.40,7.0,Calm,Calm,-,N/A,,Clear,0,2012-11-17 10:55:00
5:15 AM,32.0,32.0,100,30.40,7.0,Calm,Calm,-,N/A,,Clear,0,2012-11-17 11:15:00
5:35 AM,32.0,32.0,100,30.41,7.0,Calm,Calm,-,N/A,,Clear,0,2012-11-17 11:35:00
5:55 AM,32.0,32.0,100,30.41,10.0,Calm,Calm,-,N/A,,Clear,0,2012-11-17 11:55:00
6:15 AM,31.8,31.8,100,30.41,5.0,Calm,Calm,-,N/A,,Clear,0,2012-11-17 12:15:00
6:35 AM,31.3,31.3,100,30.42,7.0,Calm,Calm,-,N/A,,Clear,0,2012-11-17 12:35:00
6:55 AM,31.1,31.1,100,30.43,5.0,Calm,Calm,-,N/A,,Clear,0,2012-11-17 12:55:00
7:15 AM,32.4,32.4,100,30.43,10.0,Calm,Calm,-,N/A,,Clear,0,2012-11-17 13:15:00
7:35 AM,33.1,33.1,100,30.44,10.0,Calm,Calm,-,N/A,,Clear,0,2012-11-17 13:35:00
7:55 AM,37.4,37.0,99,30.45,10.0,Calm,Calm,-,N/A,,Clear,0,2012-11-17 13:55:00
8:15 AM,39.6,37.0,91,30.45,10.0,Calm,Calm,-,N/A,,Clear,0,2012-11-17 14:15:00
8:35 AM,42.3,38.1,85,30.46,10.0,Calm,Calm,-,N/A,,Clear,0,2012-11-17 14:35:00
8:55 AM,45.9,37.8,73,30.45,10.0,Calm,Calm,-,N/A,,Clear,0,2012-11-17 14:55:00
9:15 AM,48.0,36.5,64,30.45,10.0,ENE,3.5,-,N/A,,Clear,60,2012-11-17 15:15:00
9:35 AM,51.1,36.3,57,30.45,10.0,Calm,Calm,-,N/A,,Clear,0,2012-11-17 15:35:00
9:55 AM,53.2,35.1,50,30.46,10.0,East,4.6,-,N/A,,Clear,90,2012-11-17 15:55:00
10:15 AM,54.9,34.9,47,30.45,10.0,East,4.6,-,N/A,,Clear,90,2012-11-17 16:15:00
10:35 AM,56.3,34.3,44,30.45,10.0,ENE,3.5,-,N/A,,Clear,60,2012-11-17 16:35:00
11:55 AM,63.5,29.3,28,30.43,10.0,ENE,5.8,-,N/A,,Clear,70,2012-11-17 17:55:00
12:15 PM,62.4,28.2,27,30.42,10.0,Calm,Calm,-,N/A,,Clear,0,2012-11-17 18:15:00
12:35 PM,64.0,28.4,26,30.41,10.0,Calm,Calm,-,N/A,,Clear,0,2012-11-17 18:35:00
12:55 PM,64.8,26.4,23,30.40,10.0,ESE,5.8,-,N/A,,Clear,110,2012-11-17 18:55:00
1:15 PM,64.9,24.8,22,30.39,10.0,SE,3.5,-,N/A,,Clear,130,2012-11-17 19:15:00
1:35 PM,65.7,26.6,23,30.38,10.0,North,4.6,-,N/A,,Clear,350,2012-11-17 19:35:00
1:55 PM,65.5,25.2,22,30.37,10.0,North,4.6,-,N/A,,Clear,10,2012-11-17 19:55:00
2:15 PM,65.8,24.6,21,30.37,10.0,NE,4.6,-,N/A,,Clear,50,2012-11-17 20:15:00
2:35 PM,65.7,23.9,21,30.36,10.0,NE,3.5,-,N/A,,Clear,50,2012-11-17 20:35:00
2:55 PM,65.8,25.3,22,30.36,10.0,ENE,3.5,-,N/A,,Clear,60,2012-11-17 20:55:00
3:15 PM,65.8,28.0,24,30.37,10.0,NE,3.5,-,N/A,,Clear,50,2012-11-17 21:15:00
3:35 PM,64.9,26.6,24,30.37,10.0,North,3.5,-,N/A,,Clear,360,2012-11-17 21:35:00
3:55 PM,64.6,28.2,25,30.37,10.0,NE,5.8,-,N/A,,Clear,40,2012-11-17 21:55:00
4:15 PM,63.9,28.8,27,30.37,10.0,North,4.6,-,N/A,,Clear,10,2012-11-17 22:15:00
4:35 PM,62.1,29.8,30,30.36,10.0,NNE,3.5,-,N/A,,Clear,30,2012-11-17 22:35:00
4:55 PM,56.5,38.3,51,30.35,10.0,Calm,Calm,-,N/A,,Clear,0,2012-11-17 22:55:00
5:15 PM,51.6,39.9,64,30.35,10.0,Calm,Calm,-,N/A,,Clear,0,2012-11-17 23:15:00
5:35 PM,48.6,40.3,73,30.35,10.0,Calm,Calm,-,N/A,,Clear,0,2012-11-17 23:35:00
5:55 PM,47.7,39.9,75,30.36,10.0,Calm,Calm,-,N/A,,Clear,0,2012-11-17 23:55:00
6:15 PM,45.9,40.1,80,30.36,10.0,Calm,Calm,-,N/A,,Clear,0,2012-11-18 00:15:00
6:35 PM,44.1,39.6,84,30.37,10.0,Calm,Calm,-,N/A,,Clear,0,2012-11-18 00:35:00
6:55 PM,44.1,39.2,83,30.37,10.0,Calm,Calm,-,N/A,,Clear,0,2012-11-18 00:55:00
7:15 PM,42.8,39.0,86,30.37,10.0,Calm,Calm,-,N/A,,Clear,0,2012-11-18 01:15:00
7:35 PM,43.5,37.6,80,30.38,10.0,Calm,Calm,-,N/A,,Clear,0,2012-11-18 01:35:00
7:55 PM,41.0,38.3,90,30.38,10.0,Calm,Calm,-,N/A,,Clear,0,2012-11-18 01:55:00
8:15 PM,40.5,38.3,92,30.38,10.0,Calm,Calm,-,N/A,,Clear,0,2012-11-18 02:15:00
8:55 PM,39.4,38.3,96,30.39,10.0,Calm,Calm,-,N/A,,Clear,0,2012-11-18 02:55:00
9:15 PM,38.5,37.6,97,30.39,10.0,Calm,Calm,-,N/A,,Clear,0,2012-11-18 03:15:00
9:35 PM,38.7,38.3,99,30.39,10.0,Calm,Calm,-,N/A,,Clear,0,2012-11-18 03:35:00
9:55 PM,38.3,38.3,100,30.39,10.0,Calm,Calm,-,N/A,,Clear,0,2012-11-18 03:55:00
10:15 PM,37.2,37.2,100,30.39,10.0,Calm,Calm,-,N/A,,Clear,0,2012-11-18 04:15:00
10:35 PM,37.9,37.9,100,30.38,10.0,Calm,Calm,-,N/A,,Clear,0,2012-11-18 04:35:00
10:55 PM,36.5,36.5,100,30.39,10.0,Calm,Calm,-,N/A,,Clear,0,2012-11-18 04:55:00
11:15 PM,36.0,36.0,100,30.39,10.0,Calm,Calm,-,N/A,,Clear,0,2012-11-18 05:15:00
11:35 PM,36.1,36.1,100,30.38,10.0,Calm,Calm,-,N/A,,Clear,0,2012-11-18 05:35:00
11:55 PM,35.8,35.8,100,30.38,10.0,Calm,Calm,-,N/A,,Clear,0,2012-11-18 05:55:00